• In Austria
  • List of Countries
  • For 7 days
  • Water Temperature
  • Satellite Maps
  • Weather Map
  • News
  • Weather Widgets
  • user-avatar
    Login

    Hourly Weather Salta

    Today, 25 September, Tuesday

    Time Temperature Precipitation Wind Pressure Humidity
    00:00 +20°C° 0 mm 1 mps 650 mmHg 81%
    01:00 +19°C° 0 mm 1 mps 650 mmHg 82%
    02:00 +19°C° 0 mm 1 mps 650 mmHg 83%
    03:00 +19°C° 0 mm 1 mps 649 mmHg 83%
    04:00 +18°C° 0 mm 1 mps 649 mmHg 84%
    05:00 +18°C° 0 mm 1 mps 649 mmHg 84%
    06:00 +20°C° 0 mm 1 mps 650 mmHg 76%
    07:00 +21°C° 0 mm 1 mps 650 mmHg 68%
    08:00 +22°C° 0 mm 1 mps 651 mmHg 62%
    09:00 +24°C° 0 mm 2 mps 651 mmHg 57%
    10:00 +25°C° 0 mm 2 mps 651 mmHg 52%
    11:00 +27°C° 0 mm 2 mps 651 mmHg 47%
    12:00 +27°C° 0.2 mm 2 mps 651 mmHg 45%
    13:00 +28°C° 0.2 mm 3 mps 650 mmHg 44%
    14:00 +28°C° 0.2 mm 3 mps 650 mmHg 43%
    15:00 +28°C° 0.1 mm 3 mps 649 mmHg 46%
    16:00 +27°C° 0.1 mm 3 mps 649 mmHg 49%
    17:00 +26°C° 0.1 mm 3 mps 648 mmHg 52%
    18:00 +25°C° 0 mm 3 mps 648 mmHg 60%
    19:00 +24°C° 0 mm 2 mps 649 mmHg 68%
    20:00 +21°C° 0 mm 2 mps 649 mmHg 75%
    21:00 +22°C° 0.1 mm 1 mps 649 mmHg 77%
    22:00 +21°C° 0.1 mm 1 mps 649 mmHg 79%
    23:00 +21°C° 0.1 mm 1 mps 649 mmHg 80%

    Tomorrow, 26 September, Wednesday

    Time Temperature Precipitation Wind Pressure Humidity
    00:00 +21°C° 0 mm 1 mps 649 mmHg 78%
    01:00 +20°C° 0 mm 1 mps 649 mmHg 77%
    02:00 +20°C° 0 mm 1 mps 648 mmHg 75%
    03:00 +20°C° 0 mm 1 mps 648 mmHg 74%
    04:00 +19°C° 0 mm 1 mps 648 mmHg 72%
    05:00 +19°C° 0 mm 1 mps 648 mmHg 70%
    06:00 +20°C° 0 mm 1 mps 649 mmHg 64%
    07:00 +22°C° 0 mm 1 mps 650 mmHg 58%
    08:00 +23°C° 0 mm 1 mps 651 mmHg 51%
    09:00 +25°C° 0 mm 2 mps 651 mmHg 48%
    10:00 +26°C° 0 mm 2 mps 651 mmHg 45%
    11:00 +28°C° 0 mm 2 mps 652 mmHg 41%
    12:00 +28°C° 0.2 mm 3 mps 651 mmHg 41%
    13:00 +29°C° 0.2 mm 3 mps 650 mmHg 40%
    14:00 +29°C° 0.2 mm 3 mps 650 mmHg 39%
    15:00 +28°C° 0.5 mm 3 mps 649 mmHg 44%
    16:00 +28°C° 0.5 mm 3 mps 649 mmHg 48%
    17:00 +27°C° 0.5 mm 3 mps 648 mmHg 52%
    18:00 +25°C° 0.1 mm 3 mps 649 mmHg 60%
    19:00 +24°C° 0.1 mm 2 mps 649 mmHg 68%
    20:00 +23°C° 0.1 mm 2 mps 650 mmHg 76%
    21:00 +23°C° 0.1 mm 1 mps 650 mmHg 76%
    22:00 +22°C° 0.1 mm 1 mps 651 mmHg 77%
    23:00 +22°C° 0.1 mm 1 mps 651 mmHg 78%

    Day after tomorrow, 27 September, Thursday

    Time Temperature Precipitation Wind Pressure Humidity
    00:00 +22°C° 0 mm 1 mps 651 mmHg 78%
    01:00 +21°C° 0 mm 1 mps 650 mmHg 79%
    02:00 +20°C° 0 mm 1 mps 650 mmHg 79%
    03:00 +20°C° 0 mm 1 mps 650 mmHg 76%
    04:00 +20°C° 0 mm 1 mps 650 mmHg 73%
    05:00 +20°C° 0 mm 1 mps 649 mmHg 69%
    06:00 +21°C° 0 mm 1 mps 650 mmHg 66%
    07:00 +22°C° 0 mm 1 mps 651 mmHg 62%
    08:00 +23°C° 0 mm 1 mps 651 mmHg 59%
    09:00 +24°C° 0 mm 2 mps 652 mmHg 57%
    10:00 +25°C° 0 mm 2 mps 652 mmHg 55%
    11:00 +26°C° 0 mm 2 mps 652 mmHg 53%
    12:00 +26°C° 0 mm 2 mps 651 mmHg 52%
    13:00 +27°C° 0 mm 2 mps 651 mmHg 50%
    14:00 +28°C° 0 mm 3 mps 650 mmHg 48%
    15:00 +27°C° 0.1 mm 3 mps 649 mmHg 52%
    16:00 +27°C° 0.1 mm 3 mps 649 mmHg 56%
    17:00 +26°C° 0.1 mm 3 mps 648 mmHg 60%
    18:00 +25°C° 0.1 mm 2 mps 649 mmHg 65%
    19:00 +24°C° 0.1 mm 2 mps 649 mmHg 71%
    20:00 +23°C° 0.1 mm 2 mps 650 mmHg 76%
    21:00 +23°C° 0 mm 1 mps 650 mmHg 77%
    22:00 +22°C° 0 mm 1 mps 650 mmHg 78%
    23:00 +22°C° 0 mm 1 mps 650 mmHg 80%

    28 September, Friday

    Time Temperature Precipitation Wind Pressure Humidity
    00:00 +21°C° 0 mm 1 mps 650 mmHg 80%
    01:00 +21°C° 0 mm 1 mps 649 mmHg 80%
    02:00 +21°C° 0 mm 1 mps 649 mmHg 80%
    03:00 +20°C° 0 mm 1 mps 649 mmHg 77%
    04:00 +20°C° 0 mm 1 mps 649 mmHg 75%
    05:00 +20°C° 0 mm 1 mps 649 mmHg 73%
    06:00 +21°C° 0 mm 1 mps 650 mmHg 67%
    07:00 +23°C° 0 mm 1 mps 650 mmHg 62%
    08:00 +24°C° 0 mm 1 mps 651 mmHg 57%
    09:00 +25°C° 0 mm 1 mps 651 mmHg 53%
    10:00 +27°C° 0 mm 2 mps 651 mmHg 49%
    11:00 +28°C° 0 mm 2 mps 651 mmHg 45%
    12:00 +29°C° 0.8 mm 2 mps 651 mmHg 44%
    13:00 +29°C° 0.8 mm 3 mps 650 mmHg 43%
    14:00 +30°C° 0.8 mm 3 mps 649 mmHg 42%
    15:00 +30°C° 0.8 mm 3 mps 649 mmHg 44%
    16:00 +29°C° 0.8 mm 3 mps 648 mmHg 45%
    17:00 +29°C° 0.8 mm 3 mps 648 mmHg 47%
    18:00 +27°C° 0.2 mm 2 mps 648 mmHg 54%
    19:00 +26°C° 0.2 mm 2 mps 648 mmHg 62%
    20:00 +24°C° 0.2 mm 1 mps 649 mmHg 69%
    21:00 +24°C° 0.3 mm 1 mps 649 mmHg 71%
    22:00 +23°C° 0.3 mm 1 mps 649 mmHg 73%
    23:00 +23°C° 0.3 mm 1 mps 649 mmHg 74%

    29 September, Saturday

    Time Temperature Precipitation Wind Pressure Humidity
    00:00 +22°C° 0.1 mm 1 mps 648 mmHg 72%
    01:00 +22°C° 0.1 mm 1 mps 648 mmHg 70%
    02:00 +22°C° 0.1 mm 1 mps 648 mmHg 67%
    03:00 +22°C° 0 mm 1 mps 647 mmHg 62%
    04:00 +22°C° 0 mm 1 mps 647 mmHg 58%
    05:00 +20°C° 0 mm 2 mps 647 mmHg 53%
    06:00 +23°C° 0 mm 2 mps 648 mmHg 49%
    07:00 +24°C° 0 mm 1 mps 649 mmHg 45%
    08:00 +26°C° 0 mm 1 mps 650 mmHg 42%
    09:00 +28°C° 0 mm 2 mps 650 mmHg 36%
    10:00 +30°C° 0 mm 2 mps 650 mmHg 31%
    11:00 +34°C° 0 mm 2 mps 650 mmHg 26%
    12:00 +34°C° 0 mm 3 mps 649 mmHg 24%
    13:00 +35°C° 0 mm 3 mps 649 mmHg 22%
    14:00 +36°C° 0 mm 3 mps 648 mmHg 20%
    15:00 +36°C° 0 mm 4 mps 647 mmHg 22%
    16:00 +35°C° 0 mm 4 mps 647 mmHg 24%
    17:00 +34°C° 0 mm 4 mps 646 mmHg 26%
    18:00 +31°C° 0 mm 3 mps 646 mmHg 31%
    19:00 +29°C° 0 mm 2 mps 646 mmHg 37%
    20:00 +27°C° 0 mm 1 mps 646 mmHg 42%
    21:00 +26°C° 0 mm 1 mps 646 mmHg 43%
    22:00 +26°C° 0 mm 1 mps 647 mmHg 43%
    23:00 +25°C° 0 mm 1 mps 647 mmHg 44%

    30 September, Sunday

    Time Temperature Precipitation Wind Pressure Humidity
    00:00 +25°C° 0 mm 1 mps 647 mmHg 41%
    01:00 +24°C° 0 mm 2 mps 646 mmHg 38%
    02:00 +24°C° 0 mm 2 mps 646 mmHg 35%
    03:00 +24°C° 0 mm 2 mps 646 mmHg 33%
    04:00 +23°C° 0 mm 2 mps 647 mmHg 30%
    05:00 +22°C° 0 mm 3 mps 647 mmHg 27%
    06:00 +25°C° 0 mm 3 mps 648 mmHg 24%
    07:00 +27°C° 0 mm 2 mps 648 mmHg 20%
    08:00 +29°C° 0 mm 2 mps 649 mmHg 16%
    09:00 +32°C° 0 mm 2 mps 650 mmHg 13%
    10:00 +35°C° 0 mm 2 mps 650 mmHg 10%
    11:00 +38°C° 0 mm 2 mps 651 mmHg 7%
    12:00 +38°C° 0 mm 3 mps 650 mmHg 7%
    13:00 +39°C° 0 mm 3 mps 650 mmHg 8%
    14:00 +40°C° 0 mm 4 mps 649 mmHg 9%
    15:00 +38°C° 0 mm 4 mps 648 mmHg 13%
    16:00 +36°C° 0 mm 5 mps 648 mmHg 17%
    17:00 +35°C° 0 mm 5 mps 648 mmHg 21%
    18:00 +33°C° 0.1 mm 4 mps 648 mmHg 30%
    19:00 +29°C° 0.1 mm 3 mps 648 mmHg 38%
    20:00 +27°C° 0.1 mm 2 mps 649 mmHg 47%
    21:00 +26°C° 0.2 mm 2 mps 649 mmHg 50%
    22:00 +25°C° 0.2 mm 2 mps 649 mmHg 54%
    23:00 +25°C° 0.2 mm 1 mps 650 mmHg 58%
    Show more